Flag Weather past 2 weeks in Nablus, West Bank

Now
64 °F

Passing clouds.


Feels Like: 64 °F
Forecast: 55 / 61 °F
Wind: 5 mph from South

Location: Ben Gurion International Airport

Current Time: Nov 21, 2014 at 8:16:15 PM

Latest Report: Nov 21, 2014 at 7:50 PM


Visibility: N/A

Pressure: 29.95 "Hg

Humidity: 83%

Dew point: 59 °F

Location of NablusLocation

Historic Weather in Nablus — Graph

°F

Nablus temperature yesterday

Maximum temperature yesterday: 81 °F (at 11:20 AM)
Minimum temperature yesterday: 59 °F (at 5:20 AM)
Average temperature yesterday: 69 °F

Past Weeks' High & Low Weather Summary

 TemperatureHumidityPressure
High86 °F (Nov 9, 11:20 AM)94% (Nov 16, 5:50 AM)30.21 "Hg (Nov 16, 5:50 AM)
Low54 °F (Nov 19, 6:20 AM)11% (Nov 8, 9:50 AM)29.86 "Hg (Nov 14, 1:20 PM)
Average68 °F61%30.01 "Hg
* Reported Nov 6 7:20 PM — Nov 21 7:20 PM, Nablus, Weather by CustomWeather, © 2014

Note: Actual official high and low records may vary slightly from our data, if they occured in-between our weather recording intervals... More about our weather records

Advertising

Nablus weather history for previous 24 hours

 ConditionsComfort  
Time TempWeatherWind HumidityBarometerVisibility
7:20 PM
Nov 21
64 °FPassing clouds.6 mph73%29.95 "HgN/A
6:50 PM66 °FPassing clouds.6 mph83%29.95 "HgN/A
6:20 PM68 °FPassing clouds.6 mph78%29.95 "HgN/A
5:20 PM68 °FPassing clouds.6 mph78%29.92 "HgN/A
4:50 PM68 °FPassing clouds.3 mph73%29.92 "HgN/A
4:20 PM68 °FPartly sunny.9 mph73%29.92 "HgN/A
3:50 PM68 °FBroken clouds.8 mph78%29.92 "HgN/A
3:20 PM66 °FBroken clouds.10 mph83%29.92 "HgN/A
2:50 PM68 °FLight rain. Partly sunny.25 mph73%29.92 "HgN/A
2:20 PM72 °FPartly sunny.17 mph69%29.89 "HgN/A
1:50 PM72 °FPartly sunny.20 mph69%29.89 "HgN/A
1:20 PM73 °FPartly sunny.15 mph65%29.89 "HgN/A
12:50 PM73 °FScattered clouds.13 mph57%29.89 "HgN/A
12:20 PM73 °FPassing clouds.15 mph57%29.92 "HgN/A
11:50 AM73 °FPassing clouds.14 mph57%29.92 "HgN/A
11:20 AM72 °FScattered clouds.13 mph65%29.92 "HgN/A
10:50 AM72 °FScattered clouds.10 mph69%29.92 "HgN/A
10:20 AM72 °FScattered clouds.8 mph73%29.95 "HgN/A
9:50 AM68 °FScattered clouds.10 mph78%29.95 "HgN/A
9:20 AM70 °FPartly sunny.12 mph73%29.95 "HgN/A
8:50 AM68 °FPartly sunny.8 mph73%29.95 "HgN/A
8:20 AM66 °FPassing clouds.8 mph78%29.95 "HgN/A
7:50 AM64 °FSunny.8 mph83%29.95 "Hg10 mi
7:20 AM61 °FSunny.2 mph88%29.95 "Hg10 mi
6:50 AM59 °FPassing clouds.2 mph88%29.95 "HgN/A
6:20 AM59 °FPassing clouds.3 mph88%29.95 "Hg5 mi
5:50 AM59 °FClear.7 mph88%29.95 "Hg10 mi
5:20 AM61 °FClear.6 mph88%29.95 "Hg10 mi
4:50 AM59 °FClear.1 mph82%29.95 "Hg10 mi
4:20 AM61 °FClear.2 mph83%29.92 "Hg10 mi
3:50 AM61 °FClear.6 mph83%29.92 "Hg10 mi
3:20 AM61 °FClear.2 mph77%29.95 "Hg10 mi
2:50 AM61 °FClear.2 mph77%29.95 "Hg10 mi
2:20 AM61 °FClear.2 mph77%29.95 "Hg10 mi
1:50 AM61 °FClear.2 mph77%29.95 "Hg10 mi
1:20 AM61 °FClear.2 mph77%29.95 "Hg10 mi
12:50 AM63 °FClear.3 mph73%29.95 "Hg10 mi
12:20 AM61 °FClear.6 mph77%29.95 "Hg10 mi
11:50 PM
Nov 20
63 °FClear.6 mph73%29.95 "Hg10 mi
11:20 PM63 °FClear.3 mph73%29.95 "Hg10 mi
10:50 PM63 °FClear.3 mph73%29.98 "Hg10 mi
10:20 PM63 °FClear.2 mph73%29.98 "Hg10 mi
9:50 PM63 °FClear.2 mph73%29.98 "Hg10 mi
9:20 PM64 °FClear.3 mph68%29.98 "Hg10 mi
8:50 PM64 °FClear.5 mph68%29.98 "Hg10 mi
8:20 PM66 °FClear.2 mph64%29.98 "Hg10 mi
Weather by CustomWeather, © 2014

See weather overviewHow to use our weather pages